Regional Weather Roundup
Issued by NWS Glasgow, MT

Home | Current Version | Previous Version | Text Only | Print | Product List | Glossary On
Versions: 1 2 3 4 5 6 7 8 9 10 11 12 13 14 15 16 17 18 19 20 21 22 23 24 25 26 27 28 29 30 31 32 33 34 35 36 37 38 39 40 41 42 43 44 45 46 47 48 49 50
000
ASUS45 KGGW 020415
RWRGGW
HOURLY REGIONAL WEATHER ROUNDUP FOR NORTHEAST MONTANA
NATIONAL WEATHER SERVICE GLASGOW MONTANA
1000 PM MDT TUE SEP 01 2015

NOTE: "FAIR" INDICATES FEW OR NO CLOUDS BELOW 12,000 FEET WITH NO
SIGNIFICANT WEATHER AND/OR OBSTRUCTIONS TO VISISBILITY.

NORTHEAST MONTANA


CITY           SKY/WX    TMP DP  RH WIND       PRES   REMARKS
GLASGOW        CLEAR     69  41  36 NE12      29.77R
PLENTYWOOD       N/A     70  39  32 NE8         N/A
WOLF POINT     CLEAR     63  44  50 E6        29.77R
JORDAN           N/A     67  33  28 NE3       29.78S
WINNETT          N/A     61  45  55 S3          N/A
SIDNEY         CLEAR     64  39  39 NW7       29.79R
GLENDIVE       CLEAR     70  37  30 NE6       29.81S
MALTA            N/A     61  43  51 CALM        N/A
SCOBEY           N/A     56  38  50 CALM      29.81S

FORT PECK REPORTS


CITY           SKY/WX    TMP DP  RH WIND       PRES   REMARKS
THE PINES        N/A     73  32  22 NE2         N/A

SOUTHEAST MONTANA


CITY           SKY/WX    TMP DP  RH WIND       PRES   REMARKS
BILLINGS       CLEAR     78  28  16 SE10      29.80S
MILES CITY     CLEAR     71  35  26 NE6       29.78R
BAKER          CLEAR     65  45  48 SE5       29.84R
LIVINGSTON     CLEAR     67  28  23 SW3       29.86R

CENTRAL MONTANA


CITY           SKY/WX    TMP DP  RH WIND       PRES   REMARKS
HAVRE          CLEAR     57  36  45 S6        29.73R
LEWISTOWN      CLOUDY    67  39  35 SE10      29.84S
GREAT FALLS    CLEAR     64  30  27 E6        29.77S
CUT BANK       MOCLDY    62  31  31 NW10      29.77S
HELENA         PTCLDY    69  35  28 W8        29.79R
BUTTE          PTCLDY    64  35  34 CALM      29.89R
BOZEMAN        MOCLDY    66  37  34 SE10      29.82S

WESTERN MONTANA


CITY           SKY/WX    TMP DP  RH WIND       PRES   REMARKS
MISSOULA       CLEAR     64  37  36 N9        29.77R
KALISPELL      NOT AVBL

NORTH DAKOTA


CITY           SKY/WX    TMP DP  RH WIND       PRES   REMARKS
WILLISTON      CLEAR     71  38  29 N6        29.80R
DICKINSON      CLEAR     66  56  70 SE9       29.81R
MINOT          CLEAR     70  58  65 SE6       29.77S
BISMARCK       CLEAR     75  70  84 SE8       29.80R

SOUTHERN SASKATCHEWAN


CITY           SKY/WX    TMP DP  RH WIND       PRES   REMARKS
REGINA         PTCLDY    63  48  59 SE8       29.77R
ESTEVAN        PTCLDY    61  50  67 NW8       29.79R
SWIFT CURRENT  CLEAR     57  37  47 S7        29.75S



USA.gov is the U.S. government's official web portal to all federal, state and local government web resources and services.